FW6664 Weather Reports


Display with metric or nautical units.
time (UTC)temp
F
wind
direction
speed
MPH
gust
MPH
rain 1hr
in
rain 24hr
in
rain mn
in
humidity
%
barometer
mb
20260902194530 81 230 3.0 6.0 0.00 0.00 0.00 33 1017.0
20260902194338 81 281 7.0 0.0 0.00 0.00 0.00 33 1017.0
20260902194022 81 291 4.0 8.0 0.00 0.00 0.00 33 1017.0
20260902193832 81 270 7.0 0.0 0.00 0.00 0.00 33 1017.0
20260902193517 81 237 6.0 8.0 0.00 0.00 0.00 33 1017.0
20260902193329 81 260 1.0 0.0 0.00 0.00 0.00 33 1017.0
20260902193012 81 291 5.0 6.0 0.00 0.00 0.00 33 1017.0
20260902192827 81 295 4.0 0.0 0.00 0.00 0.00 33 1017.0
20260902192506 80 300 4.0 6.0 0.00 0.00 0.00 33 1017.0
20260902192343 81 288 3.0 0.0 0.00 0.00 0.00 33 1017.0
20260902192039 80 269 5.0 6.0 0.00 0.00 0.00 33 1017.0
20260902191841 80 277 7.0 0.0 0.00 0.00 0.00 33 1017.0
20260902191534 80 280 3.0 6.0 0.00 0.00 0.00 33 1017.0
20260902191357 80 286 2.0 0.0 0.00 0.00 0.00 33 1017.0
20260902191101 80 218 2.0 4.0 0.00 0.00 0.00 33 1017.0
20260902191003 80 271 4.0 4.0 0.00 0.00 0.00 33 1017.0
20260902190852 81 257 6.0 0.0 0.00 0.00 0.00 33 1017.0
20260902190534 80 282 2.0 4.0 0.00 0.00 0.00 33 1017.0
20260902190328 80 278 5.0 0.0 0.00 0.00 0.00 33 1017.0
20260902190045 80 284 4.0 6.0 0.00 0.00 0.00 33 1017.0
20260902185846 80 292 5.0 0.0 0.00 0.00 0.00 33 1017.0
20260902185522 79 284 2.0 6.0 0.00 0.00 0.00 33 1017.0
20260902185341 80 201 1.0 0.0 0.00 0.00 0.00 33 1017.0
20260902185013 79 271 3.0 4.0 0.00 0.00 0.00 33 1017.0
20260902184833 80 272 6.0 0.0 0.00 0.00 0.00 33 1017.0
20260902184505 79 282 4.0 4.0 0.00 0.00 0.00 33 1017.0
20260902184329 80 287 12.0 0.0 0.00 0.00 0.00 33 1017.0
20260902170021 72 304 0.0 0.0 0.00 0.00 0.00 33 1017.0
20260902165516 71 309 0.0 0.0 0.00 0.00 0.00 33 1017.0
20260902151348 66 85 0.0 0.0 0.00 0.00 0.00 33 1017.0
20260902151058 65 88 0.0 0.0 0.00 0.00 0.00 33 1017.0
20260902150825 66 107 0.0 0.0 0.00 0.00 0.00 33 1017.0
20260902150551 65 107 0.0 0.0 0.00 0.00 0.00 33 1017.0
20260902150339 65 107 0.0 0.0 0.00 0.00 0.00 33 1017.0
20260902150040 64 107 0.0 0.0 0.00 0.00 0.00 33 1017.0
20260902090343 64 299 0.0 0.0 0.00 0.00 0.00 33 1017.0
20260902090022 63 299 1.0 1.0 0.00 0.00 0.00 33 1017.0
20260902055332 66 299 2.0 0.0 0.00 0.00 0.00 33 1017.0
20260902055031 65 299 2.0 3.0 0.00 0.00 0.00 33 1017.0
20260902054829 66 299 3.0 0.0 0.00 0.00 0.00 33 1017.0
20260902054527 65 299 1.0 1.0 0.00 0.00 0.00 33 1017.0
20260902053043 65 299 2.0 4.0 0.00 0.00 0.00 33 1017.0
20260902052830 66 299 3.0 0.0 0.00 0.00 0.00 33 1017.0
20260902052537 65 299 2.0 4.0 0.00 0.00 0.00 33 1017.0
20260902052349 66 299 4.0 0.0 0.00 0.00 0.00 33 1017.0
20260902052012 65 299 3.0 3.0 0.00 0.00 0.00 33 1017.0
20260902051825 66 299 4.0 0.0 0.00 0.00 0.00 33 1017.0
20260902051555 66 299 2.0 2.0 0.00 0.00 0.00 33 1017.0
20260902051333 66 299 2.0 0.0 0.00 0.00 0.00 33 1017.0
20260902051046 66 299 2.0 4.0 0.00 0.00 0.00 33 1017.0
20260902050853 66 299 4.0 0.0 0.00 0.00 0.00 33 1017.0
20260902050519 66 299 2.0 5.0 0.00 0.00 0.00 33 1017.0
20260902050328 66 299 4.0 0.0 0.00 0.00 0.00 33 1017.0
20260902050017 66 299 3.0 5.0 0.00 0.00 0.00 33 1017.0
20260902045847 66 299 4.0 0.0 0.00 0.00 0.00 33 1017.0
20260902045549 66 299 4.0 5.0 0.00 0.00 0.00 33 1017.0
20260902045341 66 299 4.0 0.0 0.00 0.00 0.00 33 1017.0
20260902045039 66 299 3.0 4.0 0.00 0.00 0.00 33 1017.0
20260902044858 66 299 3.0 0.0 0.00 0.00 0.00 33 1017.0
20260902044512 66 299 2.0 2.0 0.00 0.00 0.00 33 1017.0
20260902044336 67 299 3.0 0.0 0.00 0.00 0.00 33 1017.0
20260902044005 66 299 1.0 2.0 0.00 0.00 0.00 33 1017.0
20260902043833 67 299 2.0 0.0 0.00 0.00 0.00 33 1017.0
20260902043557 66 299 2.0 3.0 0.00 0.00 0.00 33 1017.0
20260902043330 67 299 3.0 0.0 0.00 0.00 0.00 33 1017.0
20260902043053 66 299 2.0 3.0 0.00 0.00 0.00 33 1017.0
20260902042826 67 299 2.0 0.0 0.00 0.00 0.00 33 1017.0
20260902042546 67 299 2.0 3.0 0.00 0.00 0.00 33 1017.0
20260902042343 67 299 4.0 0.0 0.00 0.00 0.00 33 1017.0
20260902042041 67 299 2.0 3.0 0.00 0.00 0.00 33 1017.0
20260902041841 67 299 2.0 0.0 0.00 0.00 0.00 33 1017.0
20260902041535 67 299 2.0 3.0 0.00 0.00 0.00 33 1017.0
20260902041336 67 299 4.0 0.0 0.00 0.00 0.00 33 1017.0
20260902041030 67 299 1.0 3.0 0.00 0.00 0.00 33 1017.0
20260902040833 67 300 3.0 0.0 0.00 0.00 0.00 33 1017.0
20260902040526 67 299 2.0 4.0 0.00 0.00 0.00 33 1017.0
20260902040332 68 299 2.0 0.0 0.00 0.00 0.00 33 1017.0
20260902040020 67 299 2.0 5.0 0.00 0.00 0.00 33 1017.0
20260902035828 68 299 3.0 0.0 0.00 0.00 0.00 33 1017.0
20260902035512 67 299 2.0 5.0 0.00 0.00 0.00 33 1017.0
20260902035344 68 299 5.0 0.0 0.00 0.00 0.00 33 1017.0
20260902035007 67 299 3.0 5.0 0.00 0.00 0.00 33 1017.0
20260902034839 68 299 3.0 0.0 0.00 0.00 0.00 33 1017.0
20260902034556 67 299 3.0 5.0 0.00 0.00 0.00 33 1017.0
20260902034335 68 299 5.0 0.0 0.00 0.00 0.00 33 1017.0
20260902034050 68 299 3.0 4.0 0.00 0.00 0.00 33 1017.0
20260902033832 68 299 3.0 0.0 0.00 0.00 0.00 33 1017.0
20260902033524 68 299 3.0 4.0 0.00 0.00 0.00 33 1017.0
20260902033331 68 299 3.0 0.0 0.00 0.00 0.00 33 1017.0
20260902033033 68 299 3.0 5.0 0.00 0.00 0.00 33 1017.0
20260902032827 69 299 4.0 0.0 0.00 0.00 0.00 33 1017.0
20260902032515 68 292 4.0 5.0 0.00 0.00 0.00 33 1017.0
20260902032404 69 291 6.0 0.0 0.00 0.00 0.00 33 1017.0
20260902032043 68 291 4.0 5.0 0.00 0.00 0.00 33 1017.0
20260902031840 69 291 4.0 0.0 0.00 0.00 0.00 33 1017.0
20260902031539 69 294 4.0 5.0 0.00 0.00 0.00 33 1017.0
20260902031341 69 302 6.0 0.0 0.00 0.00 0.00 33 1017.0
20260902031034 69 290 4.0 6.0 0.00 0.00 0.00 33 1017.0
20260902030838 70 289 4.0 0.0 0.00 0.00 0.00 33 1017.0
20260902030528 69 287 4.0 6.0 0.00 0.00 0.00 33 1017.0
20260902030337 70 293 5.0 0.0 0.00 0.00 0.00 33 1017.0
20260902030024 69 297 4.0 6.0 0.00 0.00 0.00 33 1017.0
20260902025834 70 282 3.0 0.0 0.00 0.00 0.00 33 1017.0
20260902025521 70 279 4.0 6.0 0.00 0.00 0.00 33 1017.0
20260902025333 70 275 6.0 0.0 0.00 0.00 0.00 33 1017.0
20260902025019 70 293 6.0 7.0 0.00 0.00 0.00 33 1017.0
20260902024831 71 287 6.0 0.0 0.00 0.00 0.00 33 1017.0
20260902024509 70 290 5.0 7.0 0.00 0.00 0.00 33 1017.0
20260902024325 71 288 6.0 0.0 0.00 0.00 0.00 33 1017.0
20260902024004 71 284 6.0 7.0 0.00 0.00 0.00 33 1017.0
20260902023843 71 274 9.0 0.0 0.00 0.00 0.00 33 1017.0
20260902023536 71 291 5.0 7.0 0.00 0.00 0.00 33 1017.0
20260902023341 72 288 7.0 0.0 0.00 0.00 0.00 33 1017.0
20260902023025 72 298 3.0 7.0 0.00 0.00 0.00 33 1017.0
20260902022834 72 275 4.0 0.0 0.00 0.00 0.00 33 1017.0
20260902022522 72 293 6.0 7.0 0.00 0.00 0.00 33 1017.0
20260902022352 73 295 6.0 0.0 0.00 0.00 0.00 33 1017.0
20260902022051 73 298 6.0 7.0 0.00 0.00 0.00 33 1017.0
20260902021827 73 271 7.0 0.0 0.00 0.00 0.00 33 1017.0
20260902021601 73 296 4.0 6.0 0.00 0.00 0.00 33 1017.0
20260902021342 74 275 3.0 0.0 0.00 0.00 0.00 33 1017.0
20260902021039 74 302 4.0 6.0 0.00 0.00 0.00 33 1017.0
20260902020839 74 305 3.0 0.0 0.00 0.00 0.00 33 1017.0
20260902020535 74 292 4.0 6.0 0.00 0.00 0.00 33 1017.0
20260902020336 75 286 6.0 0.0 0.00 0.00 0.00 33 1017.0
20260902020025 75 300 5.0 6.0 0.00 0.00 0.00 33 1017.0
20260902015852 76 287 9.0 0.0 0.00 0.00 0.00 33 1017.0
20260902015557 76 299 5.0 6.0 0.00 0.00 0.00 33 1017.0
20260902015349 76 287 5.0 0.0 0.00 0.00 0.00 33 1017.0
20260902015032 76 279 3.0 6.0 0.00 0.00 0.00 33 1017.0
20260902014827 77 285 4.0 0.0 0.00 0.00 0.00 33 1017.0
20260902014536 77 291 5.0 6.0 0.00 0.00 0.00 33 1017.0
20260902014326 77 294 4.0 0.0 0.00 0.00 0.00 33 1017.0
20260902014028 77 292 4.0 5.0 0.00 0.00 0.00 33 1017.0
20260902013827 78 294 6.0 0.0 0.00 0.00 0.00 33 1017.0
20260902013518 77 269 3.0 6.0 0.00 0.00 0.00 33 1017.0
20260902013324 78 276 6.0 0.0 0.00 0.00 0.00 33 1017.0
20260902013013 77 291 3.0 6.0 0.00 0.00 0.00 33 1017.0
20260902012840 78 281 3.0 0.0 0.00 0.00 0.00 33 1017.0
20260902012506 77 306 4.0 6.0 0.00 0.00 0.00 33 1017.0
20260902012336 78 261 5.0 0.0 0.00 0.00 0.00 33 1017.0
20260902012058 78 290 5.0 8.0 0.00 0.00 0.00 33 1017.0
20260902012002 78 269 5.0 8.0 0.00 0.00 0.00 33 1017.0
20260902011855 78 296 6.0 0.0 0.00 0.00 0.00 33 1017.0
20260902011537 78 286 4.0 8.0 0.00 0.00 0.00 33 1017.0
20260902011329 79 293 9.0 0.0 0.00 0.00 0.00 33 1017.0
20260902011023 79 293 6.0 10.0 0.00 0.00 0.00 33 1017.0
20260902010824 79 266 3.0 0.0 0.00 0.00 0.00 33 1017.0
20260902010519 79 264 5.0 10.0 0.00 0.00 0.00 33 1017.0
20260902010324 80 290 7.0 0.0 0.00 0.00 0.00 33 1017.0
20260902010012 80 282 6.0 6.0 0.00 0.00 0.00 33 1017.0
20260902005840 80 306 6.0 0.0 0.00 0.00 0.00 33 1017.0
20260902005506 80 291 6.0 6.0 0.00 0.00 0.00 33 1017.0
20260902005336 81 295 7.0 0.0 0.00 0.00 0.00 33 1017.0
20260902005037 80 272 4.0 6.0 0.00 0.00 0.00 33 1017.0
20260902004832 81 277 6.0 0.0 0.00 0.00 0.00 33 1017.0
20260902004539 80 279 4.0 7.0 0.00 0.00 0.00 33 1017.0
20260902004326 81 293 3.0 0.0 0.00 0.00 0.00 33 1017.0
20260902004023 80 298 6.0 7.0 0.00 0.00 0.00 33 1017.0
20260902003844 81 302 7.0 0.0 0.00 0.00 0.00 33 1017.0
20260902003518 81 292 5.0 6.0 0.00 0.00 0.00 33 1017.0
20260902003341 82 298 2.0 0.0 0.00 0.00 0.00 33 1017.0
20260902003011 81 291 4.0 6.0 0.00 0.00 0.00 33 1017.0
20260902002835 82 296 4.0 0.0 0.00 0.00 0.00 33 1017.0
20260902002600 81 297 3.0 8.0 0.00 0.00 0.00 33 1017.0
20260902002504 81 282 3.0 8.0 0.00 0.00 0.00 33 1017.0
20260902002333 82 299 5.0 0.0 0.00 0.00 0.00 33 1017.0
20260902002056 81 285 4.0 8.0 0.00 0.00 0.00 33 1017.0
20260902001830 82 230 4.0 0.0 0.00 0.00 0.00 33 1017.0
20260902001552 82 277 4.0 8.0 0.00 0.00 0.00 33 1017.0
20260902001328 82 292 7.0 0.0 0.00 0.00 0.00 33 1017.0
20260902001046 81 254 3.0 7.0 0.00 0.00 0.00 33 1017.0
20260902000829 82 277 11.0 0.0 0.00 0.00 0.00 33 1017.0
20260902000542 81 287 5.0 7.0 0.00 0.00 0.00 33 1017.0
20260902000349 82 290 8.0 0.0 0.00 0.00 0.00 33 1017.0
20260902000021 81 261 6.0 7.0 0.00 0.00 0.00 33 1017.0
20260901235824 81 261 4.0 0.0 0.00 0.00 0.00 33 1017.0
20260901235511 81 273 6.0 6.0 0.00 0.00 0.00 33 1017.0
20260901235342 82 215 9.0 0.0 0.00 0.00 0.00 33 1017.0
20260901235006 81 270 6.0 9.0 0.00 0.00 0.00 33 1017.0
20260901234841 82 227 5.0 0.0 0.00 0.00 0.00 33 1017.0
20260901234614 81 282 6.0 9.0 0.00 0.00 0.00 33 1017.0
20260901234335 82 277 8.0 0.0 0.00 0.00 0.00 33 1017.0
20260901234051 81 256 4.0 6.0 0.00 0.00 0.00 33 1017.0
20260901233854 82 284 7.0 0.0 0.00 0.00 0.00 33 1017.0
20260901233527 82 210 3.0 8.0 0.00 0.00 0.00 33 1017.0
20260901233332 82 264 9.0 0.0 0.00 0.00 0.00 33 1017.0
20260901233019 82 276 7.0 12.0 0.00 0.00 0.00 33 1017.0
20260901232826 83 212 6.0 0.0 0.00 0.00 0.00 33 1017.0
20260901232549 82 270 8.0 12.0 0.00 0.00 0.00 33 1017.0
20260901232342 83 282 3.0 0.0 0.00 0.00 0.00 33 1017.0
20260901232042 82 264 4.0 13.0 0.00 0.00 0.00 33 1017.0
20260901231838 83 273 8.0 0.0 0.00 0.00 0.00 33 1017.0
20260901231547 83 267 6.0 13.0 0.00 0.00 0.00 33 1017.0
20260901231334 83 276 5.0 0.0 0.00 0.00 0.00 33 1017.0
20260901231032 83 288 10.0 13.0 0.00 0.00 0.00 33 1017.0
20260901230830 84 271 9.0 0.0 0.00 0.00 0.00 33 1017.0
20260901230524 83 275 3.0 8.0 0.00 0.00 0.00 33 1017.0
20260901230327 83 293 5.0 0.0 0.00 0.00 0.00 33 1017.0
20260901230020 83 258 6.0 10.0 0.00 0.00 0.00 33 1017.0
20260901225844 83 301 2.0 0.0 0.00 0.00 0.00 33 1017.0
20260901225512 83 277 6.0 10.0 0.00 0.00 0.00 33 1017.0
20260901225340 83 289 14.0 0.0 0.00 0.00 0.00 33 1017.0
20260901225009 83 267 5.0 9.0 0.00 0.00 0.00 33 1017.0
20260901224838 83 292 11.0 0.0 0.00 0.00 0.00 33 1017.0
20260901224600 83 281 8.0 11.0 0.00 0.00 0.00 33 1017.0
20260901224506 83 301 8.0 11.0 0.00 0.00 0.00 33 1017.0
20260901224335 83 260 9.0 0.0 0.00 0.00 0.00 33 1017.0
20260901224055 83 276 9.0 11.0 0.00 0.00 0.00 33 1017.0
20260901223830 83 283 9.0 0.0 0.00 0.00 0.00 33 1017.0
20260901223549 83 229 5.0 8.0 0.00 0.00 0.00 33 1017.0
20260901223331 83 267 8.0 0.0 0.00 0.00 0.00 33 1017.0
20260901223104 83 234 6.0 8.0 0.00 0.00 0.00 33 1017.0
20260901222827 83 214 2.0 0.0 0.00 0.00 0.00 33 1017.0
20260901222537 83 210 4.0 9.0 0.00 0.00 0.00 33 1017.0
20260901222345 83 224 11.0 0.0 0.00 0.00 0.00 33 1017.0
20260901222030 83 274 5.0 9.0 0.00 0.00 0.00 33 1017.0
20260901221840 83 269 7.0 0.0 0.00 0.00 0.00 33 1017.0
20260901221528 83 217 5.0 10.0 0.00 0.00 0.00 33 1017.0
20260901221335 84 279 3.0 0.0 0.00 0.00 0.00 33 1017.0
20260901221017 83 223 5.0 10.0 0.00 0.00 0.00 33 1017.0
20260901220830 84 229 8.0 0.0 0.00 0.00 0.00 33 1017.0
20260901220509 85 233 5.0 10.0 0.00 0.00 0.00 33 1017.0
20260901220326 86 296 7.0 0.0 0.00 0.00 0.00 33 1017.0
20260901220006 85 295 10.0 10.0 0.00 0.00 0.00 33 1017.0
20260901215843 86 304 4.0 0.0 0.00 0.00 0.00 33 1017.0
20260901215557 85 288 6.0 8.0 0.00 0.00 0.00 33 1017.0
20260901215502 85 278 5.0 8.0 0.00 0.00 0.00 33 1017.0
20260901215341 85 282 8.0 0.0 0.00 0.00 0.00 33 1017.0
20260901215053 85 283 6.0 11.0 0.00 0.00 0.00 33 1017.0
20260901214838 85 281 4.0 0.0 0.00 0.00 0.00 33 1017.0
20260901214548 85 275 8.0 12.0 0.00 0.00 0.00 33 1017.0
20260901214337 85 277 10.0 0.0 0.00 0.00 0.00 33 1017.0
20260901214027 84 274 7.0 12.0 0.00 0.00 0.00 33 1017.0
20260901213834 85 284 10.0 0.0 0.00 0.00 0.00 33 1017.0
20260901213519 84 278 5.0 9.0 0.00 0.00 0.00 33 1017.0
20260901213332 85 276 6.0 0.0 0.00 0.00 0.00 33 1017.0
20260901213015 85 270 7.0 9.0 0.00 0.00 0.00 33 1017.0
20260901212828 86 271 8.0 0.0 0.00 0.00 0.00 33 1017.0
20260901212506 85 292 4.0 9.0 0.00 0.00 0.00 33 1017.0
20260901212344 86 238 5.0 0.0 0.00 0.00 0.00 33 1017.0
20260901212057 85 282 7.0 9.0 0.00 0.00 0.00 33 1017.0
20260901211837 85 296 7.0 0.0 0.00 0.00 0.00 33 1017.0
20260901211553 85 292 6.0 10.0 0.00 0.00 0.00 33 1017.0
20260901211332 86 255 5.0 0.0 0.00 0.00 0.00 33 1017.0
20260901211044 85 294 7.0 10.0 0.00 0.00 0.00 33 1017.0
20260901210832 86 268 8.0 0.0 0.00 0.00 0.00 33 1017.0
20260901210522 86 265 10.0 10.0 0.00 0.00 0.00 33 1017.0
20260901210330 86 296 10.0 0.0 0.00 0.00 0.00 33 1017.0
20260901210011 86 293 7.0 9.0 0.00 0.00 0.00 33 1017.0
20260901205827 86 293 8.0 0.0 0.00 0.00 0.00 33 1017.0
20260901205506 86 274 8.0 8.0 0.00 0.00 0.00 33 1017.0
20260901205344 86 178 6.0 0.0 0.00 0.00 0.00 33 1017.0
20260901205056 86 290 5.0 8.0 0.00 0.00 0.00 33 1017.0
20260901205000 86 285 6.0 8.0 0.00 0.00 0.00 33 1017.0
20260901204840 86 292 11.0 0.0 0.00 0.00 0.00 33 1017.0
20260901204550 85 252 6.0 8.0 0.00 0.00 0.00 33 1017.0
20260901204336 86 288 8.0 0.0 0.00 0.00 0.00 33 1017.0
20260901204044 85 274 6.0 8.0 0.00 0.00 0.00 33 1017.0
20260901203832 86 290 8.0 0.0 0.00 0.00 0.00 33 1017.0
20260901203540 85 254 5.0 9.0 0.00 0.00 0.00 33 1017.0
20260901203330 86 302 3.0 0.0 0.00 0.00 0.00 33 1017.0
20260901203036 85 282 8.0 9.0 0.00 0.00 0.00 33 1017.0
20260901202848 85 251 5.0 0.0 0.00 0.00 0.00 33 1017.0
20260901202506 85 251 5.0 12.0 0.00 0.00 0.00 33 1017.0
20260901202343 85 282 7.0 0.0 0.00 0.00 0.00 33 1017.0
20260901202103 84 276 4.0 12.0 0.00 0.00 0.00 33 1017.0
20260901202003 84 273 5.0 12.0 0.00 0.00 0.00 33 1017.0
20260901201839 85 253 6.0 0.0 0.00 0.00 0.00 33 1017.0
20260901201554 84 268 9.0 12.0 0.00 0.00 0.00 33 1017.0
20260901201336 84 198 3.0 0.0 0.00 0.00 0.00 33 1017.0
20260901201045 84 260 4.0 8.0 0.00 0.00 0.00 33 1017.0
20260901200830 84 276 8.0 0.0 0.00 0.00 0.00 33 1017.0
20260901200537 84 282 6.0 8.0 0.00 0.00 0.00 33 1017.0
20260901200346 84 260 12.0 0.0 0.00 0.00 0.00 33 1017.0
20260901200050 85 277 7.0 8.0 0.00 0.00 0.00 33 1017.0
20260901195902 85 268 11.0 0.0 0.00 0.00 0.00 33 1017.0
20260901195505 84 274 2.0 7.0 0.00 0.00 0.00 33 1017.0
20260901195338 85 225 4.0 0.0 0.00 0.00 0.00 33 1017.0
20260901195058 85 245 4.0 7.0 0.00 0.00 0.00 33 1017.0
20260901195002 85 224 5.0 7.0 0.00 0.00 0.00 33 1017.0
20260901194835 85 290 6.0 0.0 0.00 0.00 0.00 33 1017.0